Terminal Aerodrome Forecast
Issued by NWS

Home | Current Version | Previous Version | Text Only | Print | Product List | Glossary On
Versions: 1 2 3 4 5 6 7 8 9 10 11 12 13 14 15 16 17 18 19 20 21 22 23 24 25 26 27
000
FTPA31 PHFO 031900 AAA
TAFJRF
TAF AMD
PHJR 031905Z 0319/0418 VRB05KT 4SM RA BR SCT020 BKN035 BKN080
     FM032000 14011KT P6SM VCSH SCT025 BKN040
      TEMPO 0323/0403 5SM SHRA BR BKN025
     FM040500 VRB04KT P6SM VCSH SCT020 BKN040=

USA.gov is the U.S. government's official web portal to all federal, state and local government web resources and services.